Weather Roundup
Issued by NWS Chicago, IL

Home | Current Version | Previous Version | Text Only | Print | Product List | Glossary On
Versions: 1 2 3 4 5 6 7 8 9 10 11 12 13 14 15 16 17 18 19 20 21 22 23 24 25 26 27 28 29 30 31 32 33 34 35 36 37 38 39 40 41 42 43 44 45 46 47 48 49 50
000
NZUS59 KLOT 301822
HRRLOT

CHICAGO AREA WEATHER ROUNDUP
NATIONAL WEATHER SERVICE CHICAGO/ROMEOVILLE IL
100 PM CDT SAT MAY 30 2015

NOTE: "FAIR" INDICATES FEW OR NO CLOUDS BELOW 12,000 FEET WITH NO
SIGNIFICANT WEATHER AND/OR OBSTRUCTIONS TO VISIBILITY.

* THESE STATIONS ARE NOT UNDER NWS QUALITY CONTROL. THEY ALSO MAY NOT
  REPORT WEATHER SUCH AS PRECIPITATION OR FOG.

ILZ005-006-012>014-019>023-301900-
NORTHEAST ILLINOIS

CITY           SKY/WX    TMP DP  RH WIND       PRES   REMARKS
OHARE          CLOUDY    51  49  92 NE16      30.05R
6HR MIN TEMP:  51; 6HR MAX TEMP:  69; 6HR PCP:  0.07;

MIDWAY         LGT RAIN  54  52  93 N16       30.03R FOG
6HR MIN TEMP:  54; 6HR MAX TEMP:  71; 6HR PCP:  0.09;

AURORA         LGT RAIN  60  56  86 NE20      30.01R FOG
6HR MIN TEMP:  67; 6HR MAX TEMP:  70; 6HR PCP:  0.04;

LANSING*       CLOUDY    56  52  87 N15G21    30.01R
JOLIET*        RAIN      68  66  94 CALM      29.99S
WAUKEGAN       LGT RAIN  48  46  93 N16G29    30.06R
6HR MIN TEMP:  48; 6HR MAX TEMP:  67; 6HR PCP:  0.09;

DUPAGE AIRPORT LGT RAIN  56  54  93 NE14      30.02R FOG
6HR MIN TEMP:  56; 6HR MAX TEMP:  69; 6HR PCP:  0.07;

WHEELING       CLOUDY    50  48  93 N15G22    30.08R
6HR MIN TEMP:  50; 6HR MAX TEMP:  68; 6HR PCP:  0.10;

KANKAKEE*      CLOUDY    72  67  85 CALM      29.99S
MORRIS*        DRIZZLE   69  65  89 NW5       29.97F
LEWIS AIRPORT* CLOUDY    66  63  89 NE20      30.00S
NORTHERLY IS     N/A     50  48  93 N21         N/A
$$

WIZ051-052-058>065-066-070>072-301900-
SOUTHEAST WISCONSIN

CITY           SKY/WX    TMP DP  RH WIND       PRES   REMARKS
MILWAUKEE      LGT RAIN  47  44  90 N22G37    30.11R FOG
6HR MIN TEMP:  47; 6HR MAX TEMP:  51; 6HR PCP:  0.13;

KENOSHA*       LGT RAIN  49  47  93 N18G28    30.08S
RACINE*        RAIN      47  44  90 N25G36    30.10R FOG
BURLINGTON     RAIN      48  46  95 N17G23    30.10R
WAUKESHA       RAIN      48  48 100 NE17G29   30.13R
WEST BEND      RAIN      46  45  93 NE12G22   30.14R
$$

INZ001>003-010>013-019-020-301900-
NORTHWEST INDIANA

CITY           SKY/WX    TMP DP  RH WIND       PRES   REMARKS
GARY*          CLOUDY    55  54  94 N9G21     30.03R FOG
MICHIGAN CITY* NOT AVBL
RENSSELAER*    NOT AVBL
VALPARAISO     CLOUDY    73  65  75 CALM      29.98F
$$

LMZ740>746-301900-
SOUTHERN LAKE MICHIGAN

STATION/POSITION TIME  SKY/WX   TEMP WIND        PRES    VSBY
                                AIR  DIR/SP/G
                 (UTC)          (F)  (DEG/KT/KT) (MB)    (MI)
HARRISON CRIB    1800            48  340/ 24/ 29   N/A
BURNHAM HARBOR   1800            50  330/ 17/ 19   N/A
CALUMET HARBOR   1800            51  340/ 16/ 22   N/A
BURNS HARBOR     1740            52  350/  7/ 23 1016.9R
MICHIGAN CITY    1800            52  350/  9/ 10   N/A
$$

ABBREVIATIONS USED IN REMARKS
   TC - TEMPERATURE IN CELSIUS
  WCI - WIND CHILL INDEX
   HX - HEAT INDEX
  VSB - VISIBILITY
$$


USA.gov is the U.S. government's official web portal to all federal, state and local government web resources and services.